Regional Weather Roundup
Issued by NWS

Home | Current Version | Previous Version | Text Only | Print | Product List | Glossary On
Versions: 1 2 3 4 5 6 7 8 9 10 11 12 13 14 15 16 17 18 19 20 21 22 23 24 25 26 27 28 29 30 31 32 33 34 35 36 37 38 39 40 41 42 43 44 45 46 47 48 49 50
000
ASUS44 KJAN 222210
RWRMS

MISSISSIPPI HOURLY WEATHER ROUNDUP
NATIONAL WEATHER SERVICE JACKSON MS
500 PM CDT FRI AUG 22 2014

NOTE: "FAIR: INDICATES FEW OR NO CLOUDS BELOW 12,000 FEET WITH NO
SIGNIFICANT WEATHER AND/OR OBSTRUCTIONS TO VISIBILITY.

MSZ001>002-007>008-010>013-018>021-025>028-034>036-222300-
NORTHWEST MISSISSIPPI

CITY           SKY/WX    TMP DP  RH WIND       PRES   REMARKS
CLARKSDALE     FAIR      93  75  55 SW3       30.02S HX 104
CLEVELAND      FAIR      93  74  54 SW8       30.01S HX 103
GREENWOOD      SUNNY     92  71  50 SW6       30.02F HX  98
GREENVILLE     SUNNY     93  70  46 SW10      30.00F HX  99
GRENADA        FAIR      91  68  46 SW5       30.02F HX  95
OLIVE BRANCH   MOSUNNY   91  75  59 SW12      30.01F HX 102
OXFORD         FAIR      91  70  49 W5        30.04F HX  97
TUNICA           N/A     91  73  55 S5        30.01F HX 100
$$

MSZ003>006-009-014>017-022>024-029>033-037>039-222300-
NORTHEAST MISSISSIPPI

CITY           SKY/WX    TMP DP  RH WIND       PRES   REMARKS
BELMONT        FAIR      90  74  58 W3        30.03F HX  99
COLUMBUS AFB   SUNNY     95  69  41 W8        30.01F HX 100
CORINTH        FAIR      90  73  58 S6        30.01F HX  98
GOLDN TRIANGLE MOSUNNY   99  70  39 CALM      30.02F HX 105
STARKVILLE     FAIR      95  66  38 CALM      30.01F HX  98
TUPELO         MOSUNNY   95  70  44 VRB5      30.01F HX 101
$$

MSZ040-058-222300-
CENTRAL MISSISSIPPI

CITY           SKY/WX    TMP DP  RH WIND       PRES   REMARKS
JACKSON INTL   MOSUNNY   93  70  46 SW7       30.04F HX  99
JACKSON HAWKNS SUNNY     93  69  45 W6        30.04F HX  98
MERIDIAN KEY   MOSUNNY   95  68  41 NW6       30.02F HX  99
MERIDIAN NAS   MOSUNNY   95  70  44 W6        30.02F HX 101
RAYMOND        FAIR      93  88  84 W5        30.04F HX 130
VICKSBURG      SUNNY     93  70  46 S5        30.03F HX  99
$$

MSZ059>079-222300-
SOUTH MISSISSIPPI

CITY           SKY/WX    TMP DP  RH WIND       PRES   REMARKS
BROOKHAVEN     FAIR      91  73  55 NW5       30.06F HX 100
COLUMBIA       FAIR      95  72  46 MISG      30.02F HX 103
HATTIESBURG    SUNNY     97  71  42 NW6       30.02F HX 104
MCCOMB         SUNNY     92  70  48 N3        30.04F HX  97
NATCHEZ        PTSUNNY   91  75  59 CALM      30.05F HX 102
PINE BELT      MOSUNNY   95  70  43 NE5       30.05F HX 101
$$

MSZ080>082-222300-
COASTAL MISSISSIPPI

CITY           SKY/WX    TMP DP  RH WIND       PRES   REMARKS
BAY ST LOUIS   MOSUNNY  N/A N/A N/A W5        30.02F
BILOXI         SUNNY     92  75  56 SW12      30.02F HX 103
PASCAGOULA     MOSUNNY   91  75  59 SW7       30.02F HX 101
GULFPORT       MOSUNNY   88  70  55 W6        30.01F THUNDER HX  93
$$


USA.gov is the U.S. government's official web portal to all federal, state and local government web resources and services.